Time,TemperatureF,DewpointF,PressureIn,WindDirection,WindDirectionDegrees,WindSpeedMPH,WindSpeedGustMPH,Humidity,HourlyPrecipIn,Conditions,Clouds,dailyrainin,SoftwareType,DateUTC
2016-02-12 00:00:00,16.5,8.8,29.24,North,353,0.0,0.0,71,0.00,,---,0.00,VWS V15.00,2016-02-12 05:00:00,
2016-02-12 00:01:00,16.7,8.9,29.24,North,353,0.0,0.0,71,0.00,,---,0.00,VWS V15.00,2016-02-12 05:01:00,
2016-02-12 00:02:00,16.7,8.9,29.24,North,353,0.0,0.0,71,0.00,,---,0.00,VWS V15.00,2016-02-12 05:02:00,
2016-02-12 00:03:00,16.7,8.9,29.24,North,353,0.0,0.0,71,0.00,,---,0.00,VWS V15.00,2016-02-12 05:03:00,
2016-02-12 00:04:00,16.7,8.9,29.24,North,353,0.0,0.0,71,0.00,,---,0.00,VWS V15.00,2016-02-12 05:04:00,
2016-02-12 00:05:00,16.7,8.9,29.24,North,353,0.0,0.0,71,0.00,,---,0.00,VWS V15.00,2016-02-12 05:05:00,
2016-02-12 00:06:00,16.9,9.1,29.24,North,353,0.0,0.0,71,0.00,,---,0.00,VWS V15.00,2016-02-12 05:06:00,
2016-02-12 00:07:00,16.2,8.4,29.23,North,353,0.0,0.0,71,0.00,,---,0.00,VWS V15.00,2016-02-12 05:07:00,
2016-02-12 00:08:00,16.9,9.1,29.24,North,353,0.0,0.0,71,0.00,,---,0.00,VWS V15.00,2016-02-12 05:08:00,
2016-02-12 00:09:00,16.9,9.1,29.24,North,353,0.0,0.0,71,0.00,,---,0.00,VWS V15.00,2016-02-12 05:09:00,
2016-02-12 00:10:00,16.7,8.9,29.24,North,353,0.0,0.0,71,0.00,,---,0.00,VWS V15.00,2016-02-12 05:10:00,
2016-02-12 00:11:00,16.7,8.9,29.24,North,353,0.0,0.0,71,0.00,,---,0.00,VWS V15.00,2016-02-12 05:11:00,
2016-02-12 00:12:00,16.3,8.6,29.23,North,353,0.0,0.0,71,0.00,,---,0.00,VWS V15.00,2016-02-12 05:12:00,
2016-02-12 00:13:00,16.7,8.9,29.24,North,353,0.0,0.0,71,0.00,,---,0.00,VWS V15.00,2016-02-12 05:13:00,
2016-02-12 00:14:00,16.7,8.9,29.24,North,353,0.0,0.0,71,0.00,,---,0.00,VWS V15.00,2016-02-12 05:14:00,
2016-02-12 00:15:00,16.7,8.9,29.24,North,353,0.0,0.0,71,0.00,,---,0.00,VWS V15.00,2016-02-12 05:15:00,
2016-02-12 00:16:00,16.7,8.9,29.24,North,353,0.0,0.0,71,0.00,,---,0.00,VWS V15.00,2016-02-12 05:16:00,
2016-02-12 00:17:00,16.5,8.8,29.23,North,353,0.0,0.0,71,0.00,,---,0.00,VWS V15.00,2016-02-12 05:17:00,
2016-02-12 00:18:00,16.7,8.9,29.24,North,353,0.0,0.0,71,0.00,,---,0.00,VWS V15.00,2016-02-12 05:18:00,
2016-02-12 00:19:00,16.7,8.9,29.24,North,353,0.0,0.0,71,0.00,,---,0.00,VWS V15.00,2016-02-12 05:19:00,
2016-02-12 00:21:00,16.7,8.9,29.24,North,353,0.0,0.0,71,0.00,,---,0.00,VWS V15.00,2016-02-12 05:21:00,
2016-02-12 00:22:00,16.5,8.8,29.23,North,353,0.0,0.0,71,0.00,,---,0.00,VWS V15.00,2016-02-12 05:22:00,
2016-02-12 00:23:00,16.9,9.1,29.24,North,353,0.0,0.0,71,0.00,,---,0.00,VWS V15.00,2016-02-12 05:23:00,
2016-02-12 00:24:00,16.9,9.1,29.24,North,353,0.0,0.0,71,0.00,,---,0.00,VWS V15.00,2016-02-12 05:24:00,
2016-02-12 00:25:00,16.9,9.1,29.24,North,353,0.0,0.0,71,0.00,,---,0.00,VWS V15.00,2016-02-12 05:25:00,
2016-02-12 00:26:00,16.9,9.1,29.24,North,353,0.0,0.0,71,0.00,,---,0.00,VWS V15.00,2016-02-12 05:26:00,
2016-02-12 00:27:00,16.3,8.6,29.23,North,353,0.0,0.0,71,0.00,,---,0.00,VWS V15.00,2016-02-12 05:27:00,
2016-02-12 00:28:00,16.7,8.9,29.24,North,353,0.0,0.0,71,0.00,,---,0.00,VWS V15.00,2016-02-12 05:28:00,
2016-02-12 00:29:00,16.7,8.9,29.24,North,353,0.0,0.0,71,0.00,,---,0.00,VWS V15.00,2016-02-12 05:29:00,
2016-02-12 00:30:00,16.7,8.9,29.24,North,353,0.0,0.0,71,0.00,,---,0.00,VWS V15.00,2016-02-12 05:30:00,
2016-02-12 00:31:00,16.7,8.9,29.24,North,353,0.0,0.0,71,0.00,,---,0.00,VWS V15.00,2016-02-12 05:31:00,
2016-02-12 00:32:00,16.0,8.2,29.23,North,353,0.0,0.0,71,0.00,,---,0.00,VWS V15.00,2016-02-12 05:32:00,
2016-02-12 00:33:00,16.7,8.9,29.24,North,353,0.0,0.0,71,0.00,,---,0.00,VWS V15.00,2016-02-12 05:33:00,
2016-02-12 00:34:00,16.7,8.9,29.24,North,353,0.0,0.0,71,0.00,,---,0.00,VWS V15.00,2016-02-12 05:34:00,
2016-02-12 00:35:00,16.7,8.9,29.24,North,353,0.0,0.0,71,0.00,,---,0.00,VWS V15.00,2016-02-12 05:35:00,
2016-02-12 00:36:00,16.7,8.9,29.24,North,353,0.0,0.0,71,0.00,,---,0.00,VWS V15.00,2016-02-12 05:36:00,
2016-02-12 00:37:00,16.0,8.2,29.23,North,353,0.0,0.0,71,0.00,,---,0.00,VWS V15.00,2016-02-12 05:37:00,
2016-02-12 00:38:00,16.7,8.9,29.24,North,353,0.0,0.0,71,0.00,,---,0.00,VWS V15.00,2016-02-12 05:38:00,
2016-02-12 00:39:00,16.7,8.9,29.24,North,353,0.0,0.0,71,0.00,,---,0.00,VWS V15.00,2016-02-12 05:39:00,
2016-02-12 00:40:00,16.7,8.9,29.24,North,353,0.0,0.0,71,0.00,,---,0.00,VWS V15.00,2016-02-12 05:40:00,
2016-02-12 00:41:00,16.7,8.9,29.24,North,353,0.0,0.0,71,0.00,,---,0.00,VWS V15.00,2016-02-12 05:41:00,
2016-02-12 00:42:00,16.0,8.2,29.23,North,353,0.0,0.0,71,0.00,,---,0.00,VWS V15.00,2016-02-12 05:42:00,
2016-02-12 00:44:00,16.7,8.9,29.24,North,353,0.0,0.0,71,0.00,,---,0.00,VWS V15.00,2016-02-12 05:44:00,
2016-02-12 00:45:00,16.7,8.9,29.24,North,353,0.0,0.0,71,0.00,,---,0.00,VWS V15.00,2016-02-12 05:45:00,
2016-02-12 00:46:00,16.7,8.9,29.24,North,353,0.0,0.0,71,0.00,,---,0.00,VWS V15.00,2016-02-12 05:46:00,
2016-02-12 00:47:00,15.8,8.1,29.23,North,353,0.0,0.0,71,0.00,,---,0.00,VWS V15.00,2016-02-12 05:47:00,
2016-02-12 00:48:00,16.7,8.9,29.24,North,353,0.0,0.0,71,0.00,,---,0.00,VWS V15.00,2016-02-12 05:48:00,
2016-02-12 00:49:00,16.7,8.9,29.24,North,353,0.0,0.0,71,0.00,,---,0.00,VWS V15.00,2016-02-12 05:49:00,
2016-02-12 00:50:00,16.7,8.9,29.24,North,353,0.0,0.0,71,0.00,,---,0.00,VWS V15.00,2016-02-12 05:50:00,
2016-02-12 00:51:00,16.7,8.9,29.24,North,353,0.0,0.0,71,0.00,,---,0.00,VWS V15.00,2016-02-12 05:51:00,
2016-02-12 00:52:00,15.8,8.1,29.23,North,353,0.0,0.0,71,0.00,,---,0.00,VWS V15.00,2016-02-12 05:52:00,
2016-02-12 00:53:00,16.7,8.9,29.24,North,353,0.0,0.0,71,0.00,,---,0.00,VWS V15.00,2016-02-12 05:53:00,
2016-02-12 00:54:00,16.5,8.8,29.24,North,353,0.0,0.0,71,0.00,,---,0.00,VWS V15.00,2016-02-12 05:54:00,
2016-02-12 00:55:00,16.5,8.8,29.24,North,353,0.0,0.0,71,0.00,,---,0.00,VWS V15.00,2016-02-12 05:55:00,
2016-02-12 00:56:00,16.5,8.8,29.24,North,353,0.0,0.0,71,0.00,,---,0.00,VWS V15.00,2016-02-12 05:56:00,
2016-02-12 00:57:00,15.8,8.1,29.23,North,353,0.0,0.0,71,0.00,,---,0.00,VWS V15.00,2016-02-12 05:57:00,
2016-02-12 00:58:00,16.3,8.6,29.24,North,353,0.0,0.0,71,0.00,,---,0.00,VWS V15.00,2016-02-12 05:58:00,
2016-02-12 00:59:00,16.3,8.6,29.24,North,353,0.0,0.0,71,0.00,,---,0.00,VWS V15.00,2016-02-12 05:59:00,
2016-02-12 01:00:00,16.2,8.4,29.24,North,353,0.0,0.0,71,0.00,,---,0.00,VWS V15.00,2016-02-12 06:00:00,
2016-02-12 01:01:00,16.3,8.6,29.24,North,353,0.0,0.0,71,0.00,,---,0.00,VWS V15.00,2016-02-12 06:01:00,
2016-02-12 01:02:00,15.4,7.7,29.23,North,353,0.0,0.0,71,0.00,,---,0.00,VWS V15.00,2016-02-12 06:02:00,
2016-02-12 01:03:00,16.2,8.4,29.24,North,353,0.0,0.0,71,0.00,,---,0.00,VWS V15.00,2016-02-12 06:03:00,
2016-02-12 01:04:00,16.2,8.4,29.24,North,353,0.0,0.0,71,0.00,,---,0.00,VWS V15.00,2016-02-12 06:04:00,
2016-02-12 01:05:00,16.2,8.4,29.24,North,353,0.0,0.0,71,0.00,,---,0.00,VWS V15.00,2016-02-12 06:05:00,
2016-02-12 01:06:00,16.2,8.4,29.24,North,353,0.0,0.0,71,0.00,,---,0.00,VWS V15.00,2016-02-12 06:06:00,
2016-02-12 01:07:00,14.9,7.2,29.23,North,353,0.0,0.0,71,0.00,,---,0.00,VWS V15.00,2016-02-12 06:07:00,
2016-02-12 01:09:00,16.2,8.4,29.24,North,353,0.0,0.0,71,0.00,,---,0.00,VWS V15.00,2016-02-12 06:09:00,
2016-02-12 01:10:00,16.2,8.4,29.24,North,353,0.0,0.0,71,0.00,,---,0.00,VWS V15.00,2016-02-12 06:10:00,
2016-02-12 01:11:00,16.2,8.4,29.24,North,353,0.0,0.0,71,0.00,,---,0.00,VWS V15.00,2016-02-12 06:11:00,
2016-02-12 01:12:00,16.2,8.4,29.24,North,353,0.0,0.0,71,0.00,,---,0.00,VWS V15.00,2016-02-12 06:12:00,
2016-02-12 01:13:00,14.7,7.0,29.21,North,353,0.0,0.0,71,0.00,,---,0.00,VWS V15.00,2016-02-12 06:13:00,
2016-02-12 01:14:00,16.3,8.6,29.24,North,353,0.0,0.0,71,0.00,,---,0.00,VWS V15.00,2016-02-12 06:14:00,
2016-02-12 01:15:00,16.3,8.6,29.24,North,353,0.0,0.0,71,0.00,,---,0.00,VWS V15.00,2016-02-12 06:15:00,
2016-02-12 01:16:00,16.3,8.6,29.24,North,353,0.0,0.0,71,0.00,,---,0.00,VWS V15.00,2016-02-12 06:16:00,
2016-02-12 01:17:00,16.5,8.8,29.24,North,353,0.0,0.0,71,0.00,,---,0.00,VWS V15.00,2016-02-12 06:17:00,
2016-02-12 01:18:00,14.5,6.9,29.21,North,353,0.0,0.0,71,0.00,,---,0.00,VWS V15.00,2016-02-12 06:18:00,
2016-02-12 01:20:00,16.5,8.8,29.24,North,353,0.0,0.0,71,0.00,,---,0.00,VWS V15.00,2016-02-12 06:20:00,
2016-02-12 01:21:00,16.5,8.8,29.24,North,353,0.0,0.0,71,0.00,,---,0.00,VWS V15.00,2016-02-12 06:21:00,
2016-02-12 01:22:00,16.5,8.8,29.24,North,353,0.0,0.0,71,0.00,,---,0.00,VWS V15.00,2016-02-12 06:22:00,
2016-02-12 01:23:00,14.5,6.9,29.21,North,353,0.0,0.0,71,0.00,,---,0.00,VWS V15.00,2016-02-12 06:23:00,
2016-02-12 01:24:00,16.5,8.8,29.24,North,353,0.0,0.0,71,0.00,,---,0.00,VWS V15.00,2016-02-12 06:24:00,
2016-02-12 01:25:00,16.5,8.8,29.24,North,353,0.0,0.0,71,0.00,,---,0.00,VWS V15.00,2016-02-12 06:25:00,
2016-02-12 01:26:00,16.5,8.8,29.24,North,353,0.0,0.0,71,0.00,,---,0.00,VWS V15.00,2016-02-12 06:26:00,
2016-02-12 01:28:00,14.5,6.9,29.21,North,353,0.0,0.0,71,0.00,,---,0.00,VWS V15.00,2016-02-12 06:28:00,
2016-02-12 01:29:00,16.5,8.8,29.24,North,353,0.0,0.0,71,0.00,,---,0.00,VWS V15.00,2016-02-12 06:29:00,
2016-02-12 01:30:00,16.5,8.8,29.24,North,353,0.0,0.0,71,0.00,,---,0.00,VWS V15.00,2016-02-12 06:30:00,
2016-02-12 01:31:00,16.3,8.6,29.24,North,353,0.0,0.0,71,0.00,,---,0.00,VWS V15.00,2016-02-12 06:31:00,
2016-02-12 01:32:00,16.2,8.4,29.24,North,353,0.0,0.0,71,0.00,,---,0.00,VWS V15.00,2016-02-12 06:32:00,
2016-02-12 01:33:00,14.5,6.9,29.21,North,353,0.0,0.0,71,0.00,,---,0.00,VWS V15.00,2016-02-12 06:33:00,
2016-02-12 01:34:00,16.2,8.4,29.24,North,353,0.0,0.0,71,0.00,,---,0.00,VWS V15.00,2016-02-12 06:34:00,
2016-02-12 01:35:00,16.0,8.2,29.24,North,353,0.0,0.0,71,0.00,,---,0.00,VWS V15.00,2016-02-12 06:35:00,
2016-02-12 01:36:00,16.0,8.2,29.24,North,353,0.0,0.0,71,0.00,,---,0.00,VWS V15.00,2016-02-12 06:36:00,
2016-02-12 01:37:00,16.0,8.2,29.24,North,353,0.0,0.0,71,0.00,,---,0.00,VWS V15.00,2016-02-12 06:37:00,
2016-02-12 01:38:00,14.2,6.5,29.21,North,353,0.0,0.0,71,0.00,,---,0.00,VWS V15.00,2016-02-12 06:38:00,
2016-02-12 01:39:00,16.0,8.2,29.24,North,353,0.0,0.0,71,0.00,,---,0.00,VWS V15.00,2016-02-12 06:39:00,
2016-02-12 01:40:00,16.0,8.2,29.24,North,353,0.0,0.0,71,0.00,,---,0.00,VWS V15.00,2016-02-12 06:40:00,
2016-02-12 01:41:00,16.0,8.2,29.24,North,353,0.0,0.0,71,0.00,,---,0.00,VWS V15.00,2016-02-12 06:41:00,
2016-02-12 01:42:00,16.0,8.2,29.24,North,353,0.0,0.0,71,0.00,,---,0.00,VWS V15.00,2016-02-12 06:42:00,
2016-02-12 01:43:00,13.8,6.5,29.21,North,353,0.0,0.0,72,0.00,,---,0.00,VWS V15.00,2016-02-12 06:43:00,
2016-02-12 01:44:00,16.0,8.2,29.24,North,353,0.0,0.0,71,0.00,,---,0.00,VWS V15.00,2016-02-12 06:44:00,
2016-02-12 01:45:00,16.0,8.2,29.24,North,353,0.0,0.0,71,0.00,,---,0.00,VWS V15.00,2016-02-12 06:45:00,
2016-02-12 01:46:00,16.0,8.2,29.24,North,353,0.0,0.0,71,0.00,,---,0.00,VWS V15.00,2016-02-12 06:46:00,
2016-02-12 01:47:00,16.0,8.2,29.24,North,353,0.0,0.0,71,0.00,,---,0.00,VWS V15.00,2016-02-12 06:47:00,
2016-02-12 01:48:00,14.0,6.7,29.21,North,353,0.0,0.0,72,0.00,,---,0.00,VWS V15.00,2016-02-12 06:48:00,
2016-02-12 01:49:00,15.8,8.1,29.24,North,353,0.0,0.0,71,0.00,,---,0.00,VWS V15.00,2016-02-12 06:49:00,
2016-02-12 01:50:00,15.8,8.1,29.24,North,353,0.0,0.0,71,0.00,,---,0.00,VWS V15.00,2016-02-12 06:50:00,
2016-02-12 01:51:00,15.8,8.1,29.24,North,353,0.0,0.0,71,0.00,,---,0.00,VWS V15.00,2016-02-12 06:51:00,
2016-02-12 01:52:00,15.8,8.1,29.24,North,353,0.0,0.0,71,0.00,,---,0.00,VWS V15.00,2016-02-12 06:52:00,
2016-02-12 01:53:00,14.0,6.7,29.21,North,353,0.0,0.0,72,0.00,,---,0.00,VWS V15.00,2016-02-12 06:53:00,
2016-02-12 01:54:00,15.8,8.1,29.24,North,353,0.0,0.0,71,0.00,,---,0.00,VWS V15.00,2016-02-12 06:54:00,
2016-02-12 01:55:00,15.8,8.1,29.24,North,353,0.0,0.0,71,0.00,,---,0.00,VWS V15.00,2016-02-12 06:55:00,
2016-02-12 01:56:00,15.8,8.1,29.24,North,353,0.0,0.0,71,0.00,,---,0.00,VWS V15.00,2016-02-12 06:56:00,
2016-02-12 01:57:00,15.8,8.1,29.24,North,353,0.0,0.0,71,0.00,,---,0.00,VWS V15.00,2016-02-12 06:57:00,
2016-02-12 01:58:00,13.8,6.5,29.21,North,353,0.0,0.0,72,0.00,,---,0.00,VWS V15.00,2016-02-12 06:58:00,
2016-02-12 01:59:00,15.8,8.1,29.24,North,353,0.0,0.0,71,0.00,,---,0.00,VWS V15.00,2016-02-12 06:59:00,
2016-02-12 02:00:00,15.8,8.1,29.24,North,353,0.0,0.0,71,0.00,,---,0.00,VWS V15.00,2016-02-12 07:00:00,
2016-02-12 02:01:00,15.6,7.9,29.24,North,353,0.0,0.0,71,0.00,,---,0.00,VWS V15.00,2016-02-12 07:01:00,
2016-02-12 02:03:00,13.5,6.1,29.21,North,353,0.0,0.0,72,0.00,,---,0.00,VWS V15.00,2016-02-12 07:03:00,
2016-02-12 02:04:00,15.4,7.7,29.24,North,353,0.0,0.0,71,0.00,,---,0.00,VWS V15.00,2016-02-12 07:04:00,
2016-02-12 02:05:00,15.4,7.7,29.24,North,353,0.0,0.0,71,0.00,,---,0.00,VWS V15.00,2016-02-12 07:05:00,
2016-02-12 02:07:00,15.1,7.4,29.24,North,353,0.0,0.0,71,0.00,,---,0.00,VWS V15.00,2016-02-12 07:07:00,
2016-02-12 02:08:00,13.3,6.0,29.21,North,353,0.0,0.0,72,0.00,,---,0.00,VWS V15.00,2016-02-12 07:08:00,
2016-02-12 02:09:00,15.1,7.4,29.24,North,353,0.0,0.0,71,0.00,,---,0.00,VWS V15.00,2016-02-12 07:09:00,
2016-02-12 02:10:00,15.1,7.4,29.24,North,353,0.0,0.0,71,0.00,,---,0.00,VWS V15.00,2016-02-12 07:10:00,
2016-02-12 02:11:00,14.9,7.2,29.24,North,353,0.0,0.0,71,0.00,,---,0.00,VWS V15.00,2016-02-12 07:11:00,
2016-02-12 02:12:00,14.9,7.2,29.24,North,353,0.0,0.0,71,0.00,,---,0.00,VWS V15.00,2016-02-12 07:12:00,
2016-02-12 02:13:00,12.9,5.6,29.21,North,353,0.0,0.0,72,0.00,,---,0.00,VWS V15.00,2016-02-12 07:13:00,
2016-02-12 02:14:00,14.7,7.0,29.20,North,353,0.0,0.0,71,0.00,,---,0.00,VWS V15.00,2016-02-12 07:14:00,
2016-02-12 02:15:00,14.7,7.0,29.20,North,353,0.0,0.0,71,0.00,,---,0.00,VWS V15.00,2016-02-12 07:15:00,
2016-02-12 02:16:00,14.7,7.0,29.20,North,353,0.0,0.0,71,0.00,,---,0.00,VWS V15.00,2016-02-12 07:16:00,
2016-02-12 02:17:00,14.7,7.0,29.20,North,353,0.0,0.0,71,0.00,,---,0.00,VWS V15.00,2016-02-12 07:17:00,
2016-02-12 02:18:00,14.5,6.9,29.20,North,353,0.0,0.0,71,0.00,,---,0.00,VWS V15.00,2016-02-12 07:18:00,
2016-02-12 02:19:00,14.5,6.9,29.20,North,353,0.0,0.0,71,0.00,,---,0.00,VWS V15.00,2016-02-12 07:19:00,
2016-02-12 02:20:00,14.5,6.9,29.20,North,353,0.0,0.0,71,0.00,,---,0.00,VWS V15.00,2016-02-12 07:20:00,
2016-02-12 02:21:00,14.5,6.9,29.20,North,353,0.0,0.0,71,0.00,,---,0.00,VWS V15.00,2016-02-12 07:21:00,
2016-02-12 02:22:00,14.5,6.9,29.20,North,353,0.0,0.0,71,0.00,,---,0.00,VWS V15.00,2016-02-12 07:22:00,
2016-02-12 02:23:00,13.1,5.8,29.21,North,353,0.0,0.0,72,0.00,,---,0.00,VWS V15.00,2016-02-12 07:23:00,
2016-02-12 02:24:00,14.5,6.9,29.20,North,353,0.0,0.0,71,0.00,,---,0.00,VWS V15.00,2016-02-12 07:24:00,
2016-02-12 02:25:00,14.5,6.9,29.20,North,353,0.0,0.0,71,0.00,,---,0.00,VWS V15.00,2016-02-12 07:25:00,
2016-02-12 02:26:00,14.5,6.9,29.20,North,353,0.0,0.0,71,0.00,,---,0.00,VWS V15.00,2016-02-12 07:26:00,
2016-02-12 02:27:00,14.5,6.9,29.20,North,353,0.0,0.0,71,0.00,,---,0.00,VWS V15.00,2016-02-12 07:27:00,
2016-02-12 02:28:00,13.6,6.3,29.21,North,353,0.0,0.0,72,0.00,,---,0.00,VWS V15.00,2016-02-12 07:28:00,
2016-02-12 02:29:00,14.5,6.9,29.20,North,353,0.0,0.0,71,0.00,,---,0.00,VWS V15.00,2016-02-12 07:29:00,
2016-02-12 02:30:00,14.5,6.9,29.20,North,353,0.0,0.0,71,0.00,,---,0.00,VWS V15.00,2016-02-12 07:30:00,
2016-02-12 02:31:00,14.5,6.9,29.20,North,353,0.0,0.0,71,0.00,,---,0.00,VWS V15.00,2016-02-12 07:31:00,
2016-02-12 02:32:00,14.5,6.9,29.20,North,353,0.0,0.0,71,0.00,,---,0.00,VWS V15.00,2016-02-12 07:32:00,
2016-02-12 02:33:00,13.8,6.5,29.21,North,353,0.0,0.0,72,0.00,,---,0.00,VWS V15.00,2016-02-12 07:33:00,
2016-02-12 02:34:00,14.4,6.7,29.20,North,353,0.0,0.0,71,0.00,,---,0.00,VWS V15.00,2016-02-12 07:34:00,
2016-02-12 02:35:00,14.5,6.9,29.20,North,353,0.0,0.0,71,0.00,,---,0.00,VWS V15.00,2016-02-12 07:35:00,
2016-02-12 02:36:00,14.5,6.9,29.20,North,353,0.0,0.0,71,0.00,,---,0.00,VWS V15.00,2016-02-12 07:36:00,
2016-02-12 02:37:00,14.4,6.7,29.20,North,353,0.0,0.0,71,0.00,,---,0.00,VWS V15.00,2016-02-12 07:37:00,
2016-02-12 02:38:00,13.8,6.5,29.21,North,353,0.0,0.0,72,0.00,,---,0.00,VWS V15.00,2016-02-12 07:38:00,
2016-02-12 02:39:00,14.4,6.7,29.20,North,353,0.0,0.0,71,0.00,,---,0.00,VWS V15.00,2016-02-12 07:39:00,
2016-02-12 02:40:00,14.2,6.5,29.20,North,353,0.0,0.0,71,0.00,,---,0.00,VWS V15.00,2016-02-12 07:40:00,
2016-02-12 02:41:00,14.0,6.7,29.20,North,353,0.0,0.0,72,0.00,,---,0.00,VWS V15.00,2016-02-12 07:41:00,
2016-02-12 02:42:00,14.0,6.7,29.20,North,353,0.0,0.0,72,0.00,,---,0.00,VWS V15.00,2016-02-12 07:42:00,
2016-02-12 02:43:00,14.0,6.7,29.18,North,353,0.0,0.0,72,0.00,,---,0.00,VWS V15.00,2016-02-12 07:43:00,
2016-02-12 02:44:00,13.8,6.5,29.20,North,353,0.0,0.0,72,0.00,,---,0.00,VWS V15.00,2016-02-12 07:44:00,
2016-02-12 02:45:00,13.8,6.5,29.20,North,353,0.0,0.0,72,0.00,,---,0.00,VWS V15.00,2016-02-12 07:45:00,
2016-02-12 02:46:00,13.8,6.5,29.20,North,353,0.0,0.0,72,0.00,,---,0.00,VWS V15.00,2016-02-12 07:46:00,
2016-02-12 02:47:00,13.8,6.5,29.20,North,353,0.0,0.0,72,0.00,,---,0.00,VWS V15.00,2016-02-12 07:47:00,
2016-02-12 02:48:00,14.0,6.7,29.18,North,353,0.0,0.0,72,0.00,,---,0.00,VWS V15.00,2016-02-12 07:48:00,
2016-02-12 02:49:00,13.8,6.5,29.20,North,353,0.0,0.0,72,0.00,,---,0.00,VWS V15.00,2016-02-12 07:49:00,
2016-02-12 02:50:00,14.0,6.7,29.20,North,353,0.0,0.0,72,0.00,,---,0.00,VWS V15.00,2016-02-12 07:50:00,
2016-02-12 02:51:00,14.0,6.7,29.20,North,353,0.0,0.0,72,0.00,,---,0.00,VWS V15.00,2016-02-12 07:51:00,
2016-02-12 02:52:00,14.0,6.7,29.20,North,353,0.0,0.0,72,0.00,,---,0.00,VWS V15.00,2016-02-12 07:52:00,
2016-02-12 02:53:00,14.2,6.5,29.18,North,353,0.0,0.0,71,0.00,,---,0.00,VWS V15.00,2016-02-12 07:53:00,
2016-02-12 02:54:00,14.0,6.7,29.20,North,353,0.0,0.0,72,0.00,,---,0.00,VWS V15.00,2016-02-12 07:54:00,
2016-02-12 02:55:00,14.0,6.7,29.20,North,353,0.0,0.0,72,0.00,,---,0.00,VWS V15.00,2016-02-12 07:55:00,
2016-02-12 02:56:00,13.8,6.5,29.20,North,353,0.0,0.0,72,0.00,,---,0.00,VWS V15.00,2016-02-12 07:56:00,
2016-02-12 02:57:00,13.8,6.5,29.20,North,353,0.0,0.0,72,0.00,,---,0.00,VWS V15.00,2016-02-12 07:57:00,
2016-02-12 02:58:00,14.5,6.9,29.18,North,353,0.0,0.0,71,0.00,,---,0.00,VWS V15.00,2016-02-12 07:58:00,
2016-02-12 02:59:00,13.8,6.5,29.20,North,353,0.0,0.0,72,0.00,,---,0.00,VWS V15.00,2016-02-12 07:59:00,
2016-02-12 03:00:00,13.8,6.5,29.20,North,353,0.0,0.0,72,0.00,,---,0.00,VWS V15.00,2016-02-12 08:00:00,
2016-02-12 03:01:00,13.8,6.5,29.20,North,353,0.0,0.0,72,0.00,,---,0.00,VWS V15.00,2016-02-12 08:01:00,
2016-02-12 03:02:00,13.8,6.5,29.20,North,353,0.0,0.0,72,0.00,,---,0.00,VWS V15.00,2016-02-12 08:02:00,
2016-02-12 03:03:00,14.9,7.2,29.18,North,353,0.0,0.0,71,0.00,,---,0.00,VWS V15.00,2016-02-12 08:03:00,
2016-02-12 03:04:00,13.6,6.3,29.20,North,353,0.0,0.0,72,0.00,,---,0.00,VWS V15.00,2016-02-12 08:04:00,
2016-02-12 03:05:00,13.5,6.1,29.20,North,353,0.0,0.0,72,0.00,,---,0.00,VWS V15.00,2016-02-12 08:05:00,
2016-02-12 03:06:00,13.5,6.1,29.20,North,353,0.0,0.0,72,0.00,,---,0.00,VWS V15.00,2016-02-12 08:06:00,
2016-02-12 03:07:00,13.3,6.0,29.20,North,353,0.0,0.0,72,0.00,,---,0.00,VWS V15.00,2016-02-12 08:07:00,
2016-02-12 03:08:00,15.3,7.6,29.18,North,353,0.0,0.0,71,0.00,,---,0.00,VWS V15.00,2016-02-12 08:08:00,
2016-02-12 03:09:00,13.3,6.0,29.20,North,353,0.0,0.0,72,0.00,,---,0.00,VWS V15.00,2016-02-12 08:09:00,
2016-02-12 03:10:00,13.3,6.0,29.20,North,353,0.0,0.0,72,0.00,,---,0.00,VWS V15.00,2016-02-12 08:10:00,
2016-02-12 03:11:00,13.3,6.0,29.20,North,353,0.0,0.0,72,0.00,,---,0.00,VWS V15.00,2016-02-12 08:11:00,
2016-02-12 03:12:00,13.1,5.8,29.20,North,353,0.0,0.0,72,0.00,,---,0.00,VWS V15.00,2016-02-12 08:12:00,
2016-02-12 03:13:00,15.4,7.7,29.18,North,353,0.0,0.0,71,0.00,,---,0.00,VWS V15.00,2016-02-12 08:13:00,
2016-02-12 03:14:00,12.9,5.6,29.20,North,353,0.0,0.0,72,0.00,,---,0.00,VWS V15.00,2016-02-12 08:14:00,
2016-02-12 03:15:00,12.9,5.6,29.20,North,353,0.0,0.0,72,0.00,,---,0.00,VWS V15.00,2016-02-12 08:15:00,
2016-02-12 03:16:00,12.9,5.6,29.20,North,353,0.0,0.0,72,0.00,,---,0.00,VWS V15.00,2016-02-12 08:16:00,
2016-02-12 03:17:00,12.9,5.6,29.20,North,353,0.0,0.0,72,0.00,,---,0.00,VWS V15.00,2016-02-12 08:17:00,
2016-02-12 03:18:00,15.4,7.7,29.18,North,353,0.0,0.0,71,0.00,,---,0.00,VWS V15.00,2016-02-12 08:18:00,
2016-02-12 03:19:00,12.9,5.6,29.20,North,353,0.0,0.0,72,0.00,,---,0.00,VWS V15.00,2016-02-12 08:19:00,
2016-02-12 03:20:00,12.7,5.4,29.20,North,353,0.0,0.0,72,0.00,,---,0.00,VWS V15.00,2016-02-12 08:20:00,
2016-02-12 03:21:00,12.7,5.4,29.20,North,353,0.0,0.0,72,0.00,,---,0.00,VWS V15.00,2016-02-12 08:21:00,
2016-02-12 03:22:00,12.9,5.6,29.20,North,353,0.0,0.0,72,0.00,,---,0.00,VWS V15.00,2016-02-12 08:22:00,
2016-02-12 03:23:00,15.4,7.7,29.18,North,353,0.0,0.0,71,0.00,,---,0.00,VWS V15.00,2016-02-12 08:23:00,
2016-02-12 03:24:00,12.9,5.6,29.20,North,353,0.0,0.0,72,0.00,,---,0.00,VWS V15.00,2016-02-12 08:24:00,
2016-02-12 03:25:00,12.9,5.6,29.20,North,353,0.0,0.0,72,0.00,,---,0.00,VWS V15.00,2016-02-12 08:25:00,
2016-02-12 03:26:00,13.1,5.8,29.20,North,353,0.0,0.0,72,0.00,,---,0.00,VWS V15.00,2016-02-12 08:26:00,
2016-02-12 03:27:00,13.1,5.8,29.20,North,353,0.0,0.0,72,0.00,,---,0.00,VWS V15.00,2016-02-12 08:27:00,
2016-02-12 03:28:00,15.4,7.7,29.18,North,353,0.0,0.0,71,0.00,,---,0.00,VWS V15.00,2016-02-12 08:28:00,
2016-02-12 03:29:00,13.5,6.1,29.20,North,353,0.0,0.0,72,0.00,,---,0.00,VWS V15.00,2016-02-12 08:29:00,
2016-02-12 03:30:00,13.5,6.1,29.20,North,353,0.0,0.0,72,0.00,,---,0.00,VWS V15.00,2016-02-12 08:30:00,
2016-02-12 03:31:00,13.6,6.3,29.20,North,353,0.0,0.0,72,0.00,,---,0.00,VWS V15.00,2016-02-12 08:31:00,
2016-02-12 03:32:00,13.6,6.3,29.20,North,353,0.0,0.0,72,0.00,,---,0.00,VWS V15.00,2016-02-12 08:32:00,
2016-02-12 03:33:00,15.3,7.6,29.18,North,353,0.0,0.0,71,0.00,,---,0.00,VWS V15.00,2016-02-12 08:33:00,
2016-02-12 03:34:00,13.8,6.5,29.20,North,353,0.0,0.0,72,0.00,,---,0.00,VWS V15.00,2016-02-12 08:34:00,
2016-02-12 03:35:00,13.8,6.5,29.20,North,353,0.0,0.0,72,0.00,,---,0.00,VWS V15.00,2016-02-12 08:35:00,
2016-02-12 03:36:00,13.8,6.5,29.20,North,353,0.0,0.0,72,0.00,,---,0.00,VWS V15.00,2016-02-12 08:36:00,
2016-02-12 03:37:00,13.8,6.5,29.20,North,353,0.0,0.0,72,0.00,,---,0.00,VWS V15.00,2016-02-12 08:37:00,
2016-02-12 03:38:00,15.3,7.6,29.18,North,353,0.0,0.0,71,0.00,,---,0.00,VWS V15.00,2016-02-12 08:38:00,
2016-02-12 03:39:00,13.8,6.5,29.20,North,353,0.0,0.0,72,0.00,,---,0.00,VWS V15.00,2016-02-12 08:39:00,
2016-02-12 03:40:00,13.8,6.5,29.20,North,353,0.0,0.0,72,0.00,,---,0.00,VWS V15.00,2016-02-12 08:40:00,
2016-02-12 03:41:00,13.8,6.5,29.20,North,353,0.0,0.0,72,0.00,,---,0.00,VWS V15.00,2016-02-12 08:41:00,
2016-02-12 03:42:00,13.8,6.5,29.20,North,353,0.0,0.0,72,0.00,,---,0.00,VWS V15.00,2016-02-12 08:42:00,
2016-02-12 03:43:00,15.4,7.7,29.18,North,353,0.0,0.0,71,0.00,,---,0.00,VWS V15.00,2016-02-12 08:43:00,
2016-02-12 03:44:00,13.8,6.5,29.18,North,353,0.0,0.0,72,0.00,,---,0.00,VWS V15.00,2016-02-12 08:44:00,
2016-02-12 03:45:00,14.0,6.7,29.18,North,353,0.0,0.0,72,0.00,,---,0.00,VWS V15.00,2016-02-12 08:45:00,
2016-02-12 03:46:00,14.0,6.7,29.18,North,353,0.0,0.0,72,0.00,,---,0.00,VWS V15.00,2016-02-12 08:46:00,
2016-02-12 03:47:00,14.0,6.7,29.18,North,353,0.0,0.0,72,0.00,,---,0.00,VWS V15.00,2016-02-12 08:47:00,
2016-02-12 03:48:00,14.0,6.7,29.18,North,353,0.0,0.0,72,0.00,,---,0.00,VWS V15.00,2016-02-12 08:48:00,
2016-02-12 03:49:00,14.0,6.7,29.18,North,353,0.0,0.0,72,0.00,,---,0.00,VWS V15.00,2016-02-12 08:49:00,
2016-02-12 03:50:00,14.0,6.7,29.18,North,353,0.0,0.0,72,0.00,,---,0.00,VWS V15.00,2016-02-12 08:50:00,
2016-02-12 03:51:00,14.0,6.7,29.18,North,353,0.0,0.0,72,0.00,,---,0.00,VWS V15.00,2016-02-12 08:51:00,
2016-02-12 03:52:00,14.2,6.5,29.18,North,353,0.0,0.0,71,0.00,,---,0.00,VWS V15.00,2016-02-12 08:52:00,
2016-02-12 03:53:00,15.4,7.7,29.18,North,353,0.0,0.0,71,0.00,,---,0.00,VWS V15.00,2016-02-12 08:53:00,
2016-02-12 03:54:00,14.2,6.5,29.18,North,353,0.0,0.0,71,0.00,,---,0.00,VWS V15.00,2016-02-12 08:54:00,
2016-02-12 03:55:00,14.2,6.5,29.18,North,353,0.0,0.0,71,0.00,,---,0.00,VWS V15.00,2016-02-12 08:55:00,
2016-02-12 03:56:00,14.2,6.5,29.18,North,353,0.0,0.0,71,0.00,,---,0.00,VWS V15.00,2016-02-12 08:56:00,
2016-02-12 03:57:00,14.4,6.7,29.18,North,353,0.0,0.0,71,0.00,,---,0.00,VWS V15.00,2016-02-12 08:57:00,
2016-02-12 03:58:00,15.3,7.6,29.18,North,353,0.0,0.0,71,0.00,,---,0.00,VWS V15.00,2016-02-12 08:58:00,
2016-02-12 03:59:00,14.4,6.7,29.18,North,353,0.0,0.0,71,0.00,,---,0.00,VWS V15.00,2016-02-12 08:59:00,
2016-02-12 04:00:00,14.4,6.7,29.18,North,353,0.0,0.0,71,0.00,,---,0.00,VWS V15.00,2016-02-12 09:00:00,
2016-02-12 04:01:00,14.5,6.9,29.18,North,353,0.0,0.0,71,0.00,,---,0.00,VWS V15.00,2016-02-12 09:01:00,
2016-02-12 04:02:00,14.5,6.9,29.18,North,353,0.0,0.0,71,0.00,,---,0.00,VWS V15.00,2016-02-12 09:02:00,
2016-02-12 04:03:00,15.3,7.6,29.18,North,353,0.0,0.0,71,0.00,,---,0.00,VWS V15.00,2016-02-12 09:03:00,
2016-02-12 04:04:00,14.7,7.0,29.18,North,353,0.0,0.0,71,0.00,,---,0.00,VWS V15.00,2016-02-12 09:04:00,
2016-02-12 04:05:00,14.9,7.2,29.18,North,353,0.0,0.0,71,0.00,,---,0.00,VWS V15.00,2016-02-12 09:05:00,
2016-02-12 04:06:00,14.9,7.2,29.18,North,353,0.0,0.0,71,0.00,,---,0.00,VWS V15.00,2016-02-12 09:06:00,
2016-02-12 04:07:00,14.9,7.2,29.18,North,353,0.0,0.0,71,0.00,,---,0.00,VWS V15.00,2016-02-12 09:07:00,
2016-02-12 04:08:00,15.1,7.4,29.18,North,353,0.0,0.0,71,0.00,,---,0.00,VWS V15.00,2016-02-12 09:08:00,
2016-02-12 04:09:00,15.1,7.4,29.18,North,353,0.0,0.0,71,0.00,,---,0.00,VWS V15.00,2016-02-12 09:09:00,
2016-02-12 04:10:00,15.3,7.6,29.18,North,353,0.0,0.0,71,0.00,,---,0.00,VWS V15.00,2016-02-12 09:10:00,
2016-02-12 04:11:00,15.3,7.6,29.18,North,353,0.0,0.0,71,0.00,,---,0.00,VWS V15.00,2016-02-12 09:11:00,
2016-02-12 04:12:00,15.3,7.6,29.18,North,353,0.0,0.0,71,0.00,,---,0.00,VWS V15.00,2016-02-12 09:12:00,
2016-02-12 04:13:00,14.7,7.0,29.15,North,353,0.0,0.0,71,0.00,,---,0.00,VWS V15.00,2016-02-12 09:13:00,
2016-02-12 04:14:00,15.4,7.7,29.18,North,353,0.0,0.0,71,0.00,,---,0.00,VWS V15.00,2016-02-12 09:14:00,
2016-02-12 04:15:00,15.4,7.7,29.18,North,353,0.0,0.0,71,0.00,,---,0.00,VWS V15.00,2016-02-12 09:15:00,
2016-02-12 04:16:00,15.4,7.7,29.18,North,353,0.0,0.0,71,0.00,,---,0.00,VWS V15.00,2016-02-12 09:16:00,
2016-02-12 04:17:00,15.4,7.7,29.18,North,353,0.0,0.0,71,0.00,,---,0.00,VWS V15.00,2016-02-12 09:17:00,
2016-02-12 04:18:00,14.5,6.9,29.15,North,353,0.0,0.0,71,0.00,,---,0.00,VWS V15.00,2016-02-12 09:18:00,
2016-02-12 04:19:00,15.4,7.7,29.18,North,353,0.0,0.0,71,0.00,,---,0.00,VWS V15.00,2016-02-12 09:19:00,
2016-02-12 04:20:00,15.4,7.7,29.18,North,353,0.0,0.0,71,0.00,,---,0.00,VWS V15.00,2016-02-12 09:20:00,
2016-02-12 04:21:00,15.4,7.7,29.18,North,353,0.0,0.0,71,0.00,,---,0.00,VWS V15.00,2016-02-12 09:21:00,
2016-02-12 04:22:00,15.4,7.7,29.18,North,353,0.0,0.0,71,0.00,,---,0.00,VWS V15.00,2016-02-12 09:22:00,
2016-02-12 04:23:00,14.7,7.0,29.15,North,353,0.0,0.0,71,0.00,,---,0.00,VWS V15.00,2016-02-12 09:23:00,
2016-02-12 04:24:00,15.4,7.7,29.18,North,353,0.0,0.0,71,0.00,,---,0.00,VWS V15.00,2016-02-12 09:24:00,
2016-02-12 04:25:00,15.4,7.7,29.18,North,353,0.0,0.0,71,0.00,,---,0.00,VWS V15.00,2016-02-12 09:25:00,
2016-02-12 04:26:00,15.4,7.7,29.18,North,353,0.0,0.0,71,0.00,,---,0.00,VWS V15.00,2016-02-12 09:26:00,
2016-02-12 04:27:00,15.4,7.7,29.18,North,353,0.0,0.0,71,0.00,,---,0.00,VWS V15.00,2016-02-12 09:27:00,
2016-02-12 04:28:00,15.1,7.4,29.15,North,353,0.0,0.0,71,0.00,,---,0.00,VWS V15.00,2016-02-12 09:28:00,
2016-02-12 04:29:00,15.4,7.7,29.18,North,353,0.0,0.0,71,0.00,,---,0.00,VWS V15.00,2016-02-12 09:29:00,
2016-02-12 04:30:00,15.4,7.7,29.18,North,353,0.0,0.0,71,0.00,,---,0.00,VWS V15.00,2016-02-12 09:30:00,
2016-02-12 04:31:00,15.4,7.7,29.18,North,353,0.0,0.0,71,0.00,,---,0.00,VWS V15.00,2016-02-12 09:31:00,
2016-02-12 04:32:00,15.4,7.7,29.18,North,353,0.0,0.0,71,0.00,,---,0.00,VWS V15.00,2016-02-12 09:32:00,
2016-02-12 04:33:00,15.4,7.7,29.15,North,353,0.0,0.0,71,0.00,,---,0.00,VWS V15.00,2016-02-12 09:33:00,
2016-02-12 04:34:00,15.3,7.6,29.18,North,353,0.0,0.0,71,0.00,,---,0.00,VWS V15.00,2016-02-12 09:34:00,
2016-02-12 04:35:00,15.3,7.6,29.18,North,353,0.0,0.0,71,0.00,,---,0.00,VWS V15.00,2016-02-12 09:35:00,
2016-02-12 04:37:00,15.3,7.6,29.18,North,353,0.0,0.0,71,0.00,,---,0.00,VWS V15.00,2016-02-12 09:37:00,
2016-02-12 04:38:00,16.0,8.2,29.15,North,353,0.0,0.0,71,0.00,,---,0.00,VWS V15.00,2016-02-12 09:38:00,
2016-02-12 04:39:00,15.3,7.6,29.18,North,353,0.0,0.0,71,0.00,,---,0.00,VWS V15.00,2016-02-12 09:39:00,
2016-02-12 04:41:00,15.3,7.6,29.18,North,353,0.0,0.0,71,0.00,,---,0.00,VWS V15.00,2016-02-12 09:41:00,
2016-02-12 04:43:00,15.4,7.7,29.18,North,353,0.0,0.0,71,0.00,,---,0.00,VWS V15.00,2016-02-12 09:43:00,
2016-02-12 04:44:00,15.4,7.7,29.18,North,353,0.0,0.0,71,0.00,,---,0.00,VWS V15.00,2016-02-12 09:44:00,
2016-02-12 04:45:00,15.4,7.7,29.18,North,353,0.0,0.0,71,0.00,,---,0.00,VWS V15.00,2016-02-12 09:45:00,
2016-02-12 04:46:00,15.4,7.7,29.18,North,353,0.0,0.0,71,0.00,,---,0.00,VWS V15.00,2016-02-12 09:46:00,
2016-02-12 04:47:00,15.4,7.7,29.18,North,353,0.0,0.0,71,0.00,,---,0.00,VWS V15.00,2016-02-12 09:47:00,
2016-02-12 04:48:00,16.3,8.6,29.15,ESE,106,0.0,0.0,71,0.00,,---,0.00,VWS V15.00,2016-02-12 09:48:00,
2016-02-12 04:49:00,15.4,7.7,29.18,North,353,0.0,0.0,71,0.00,,---,0.00,VWS V15.00,2016-02-12 09:49:00,
2016-02-12 04:50:00,15.4,7.7,29.18,North,353,0.0,0.0,71,0.00,,---,0.00,VWS V15.00,2016-02-12 09:50:00,
2016-02-12 04:51:00,15.4,7.7,29.18,North,353,0.0,0.0,71,0.00,,---,0.00,VWS V15.00,2016-02-12 09:51:00,
2016-02-12 04:52:00,15.4,7.7,29.18,North,353,0.0,0.0,71,0.00,,---,0.00,VWS V15.00,2016-02-12 09:52:00,
2016-02-12 04:53:00,16.2,8.4,29.15,ESE,106,0.0,0.0,71,0.00,,---,0.00,VWS V15.00,2016-02-12 09:53:00,
2016-02-12 04:54:00,15.4,7.7,29.18,North,353,0.0,0.0,71,0.00,,---,0.00,VWS V15.00,2016-02-12 09:54:00,
2016-02-12 04:55:00,15.4,7.7,29.18,North,353,0.0,0.0,71,0.00,,---,0.00,VWS V15.00,2016-02-12 09:55:00,
2016-02-12 04:56:00,15.3,7.6,29.18,North,353,0.0,0.0,71,0.00,,---,0.00,VWS V15.00,2016-02-12 09:56:00,
2016-02-12 04:57:00,15.3,7.6,29.18,North,353,0.0,0.0,71,0.00,,---,0.00,VWS V15.00,2016-02-12 09:57:00,
2016-02-12 04:58:00,16.3,8.6,29.15,ESE,106,0.0,0.0,71,0.00,,---,0.00,VWS V15.00,2016-02-12 09:58:00,
2016-02-12 04:59:00,15.3,7.6,29.18,North,353,0.0,0.0,71,0.00,,---,0.00,VWS V15.00,2016-02-12 09:59:00,
2016-02-12 05:00:00,15.3,7.6,29.18,North,353,0.0,0.0,71,0.00,,---,0.00,VWS V15.00,2016-02-12 10:00:00,
2016-02-12 05:01:00,15.3,7.6,29.18,North,353,0.0,0.0,71,0.00,,---,0.00,VWS V15.00,2016-02-12 10:01:00,
2016-02-12 05:02:00,15.3,7.6,29.18,North,353,0.0,0.0,71,0.00,,---,0.00,VWS V15.00,2016-02-12 10:02:00,
2016-02-12 05:03:00,16.5,8.8,29.15,ESE,106,0.0,0.0,71,0.00,,---,0.00,VWS V15.00,2016-02-12 10:03:00,
2016-02-12 05:04:00,15.3,7.6,29.18,North,353,0.0,0.0,71,0.00,,---,0.00,VWS V15.00,2016-02-12 10:04:00,
2016-02-12 05:05:00,15.3,7.6,29.18,North,353,0.0,0.0,71,0.00,,---,0.00,VWS V15.00,2016-02-12 10:05:00,
2016-02-12 05:06:00,15.3,7.6,29.18,North,353,0.0,0.0,71,0.00,,---,0.00,VWS V15.00,2016-02-12 10:06:00,
2016-02-12 05:07:00,15.3,7.6,29.18,North,353,0.0,0.0,71,0.00,,---,0.00,VWS V15.00,2016-02-12 10:07:00,
2016-02-12 05:08:00,16.9,9.1,29.15,ESE,115,0.0,0.0,71,0.00,,---,0.00,VWS V15.00,2016-02-12 10:08:00,
2016-02-12 05:10:00,15.1,7.4,29.18,North,353,0.0,0.0,71,0.00,,---,0.00,VWS V15.00,2016-02-12 10:10:00,
2016-02-12 05:11:00,15.1,7.4,29.18,North,353,0.0,0.0,71,0.00,,---,0.00,VWS V15.00,2016-02-12 10:11:00,
2016-02-12 05:12:00,15.1,7.4,29.18,North,353,0.0,0.0,71,0.00,,---,0.00,VWS V15.00,2016-02-12 10:12:00,
2016-02-12 05:13:00,17.2,9.5,29.15,ESE,115,0.0,0.0,71,0.00,,---,0.00,VWS V15.00,2016-02-12 10:13:00,
2016-02-12 05:14:00,14.9,7.2,29.15,North,353,0.0,0.0,71,0.00,,---,0.00,VWS V15.00,2016-02-12 10:14:00,
2016-02-12 05:15:00,14.7,7.0,29.15,North,353,0.0,0.0,71,0.00,,---,0.00,VWS V15.00,2016-02-12 10:15:00,
2016-02-12 05:16:00,14.7,7.0,29.15,North,353,0.0,0.0,71,0.00,,---,0.00,VWS V15.00,2016-02-12 10:16:00,
2016-02-12 05:17:00,14.5,6.9,29.15,North,353,0.0,0.0,71,0.00,,---,0.00,VWS V15.00,2016-02-12 10:17:00,
2016-02-12 05:18:00,17.4,9.6,29.15,ESE,115,0.0,0.0,71,0.00,,---,0.00,VWS V15.00,2016-02-12 10:18:00,
2016-02-12 05:19:00,14.5,6.9,29.15,North,353,0.0,0.0,71,0.00,,---,0.00,VWS V15.00,2016-02-12 10:19:00,
2016-02-12 05:20:00,14.5,6.9,29.15,North,353,0.0,0.0,71,0.00,,---,0.00,VWS V15.00,2016-02-12 10:20:00,
2016-02-12 05:21:00,14.5,6.9,29.15,North,353,0.0,0.0,71,0.00,,---,0.00,VWS V15.00,2016-02-12 10:21:00,
2016-02-12 05:22:00,14.5,6.9,29.15,North,353,0.0,0.0,71,0.00,,---,0.00,VWS V15.00,2016-02-12 10:22:00,
2016-02-12 05:23:00,17.4,9.6,29.15,ESE,115,0.0,0.0,71,0.00,,---,0.00,VWS V15.00,2016-02-12 10:23:00,
2016-02-12 05:24:00,14.5,6.9,29.15,North,353,0.0,0.0,71,0.00,,---,0.00,VWS V15.00,2016-02-12 10:24:00,
2016-02-12 05:33:00,17.6,9.8,29.15,ESE,115,0.0,0.0,71,0.00,,---,0.00,VWS V15.00,2016-02-12 10:33:00,
2016-02-12 05:38:00,17.8,9.7,29.15,ESE,115,0.0,0.0,70,0.00,,---,0.00,VWS V15.00,2016-02-12 10:38:00,
2016-02-12 05:43:00,18.1,10.0,29.15,ESE,115,0.0,0.0,70,0.00,,---,0.00,VWS V15.00,2016-02-12 10:43:00,
2016-02-12 05:48:00,18.3,10.2,29.15,ESE,115,0.0,0.0,70,0.00,,---,0.00,VWS V15.00,2016-02-12 10:48:00,
2016-02-12 05:53:00,18.5,10.4,29.15,ESE,115,0.0,0.0,70,0.00,,---,0.00,VWS V15.00,2016-02-12 10:53:00,
2016-02-12 05:58:00,18.7,10.5,29.15,SE,136,0.0,0.0,70,0.00,,---,0.00,VWS V15.00,2016-02-12 10:58:00,
2016-02-12 06:03:00,18.9,10.7,29.15,SE,125,0.0,0.0,70,0.00,,---,0.00,VWS V15.00,2016-02-12 11:03:00,
2016-02-12 06:08:00,19.0,10.9,29.15,SE,144,0.0,0.0,70,0.00,,---,0.00,VWS V15.00,2016-02-12 11:08:00,
2016-02-12 06:13:00,19.0,10.9,29.15,SE,130,0.0,0.0,70,0.00,,---,0.00,VWS V15.00,2016-02-12 11:13:00,
2016-02-12 06:18:00,19.0,10.9,29.15,SSE,167,0.0,0.0,70,0.00,,---,0.00,VWS V15.00,2016-02-12 11:18:00,
2016-02-12 06:23:00,19.2,11.1,29.15,SSE,153,0.0,0.0,70,0.00,,---,0.00,VWS V15.00,2016-02-12 11:23:00,
2016-02-12 06:28:00,19.2,11.1,29.15,SSE,153,0.0,0.0,70,0.00,,---,0.00,VWS V15.00,2016-02-12 11:28:00,
2016-02-12 06:33:00,19.2,11.1,29.15,SSE,153,0.0,0.0,70,0.00,,---,0.00,VWS V15.00,2016-02-12 11:33:00,
2016-02-12 06:38:00,19.2,11.1,29.15,SSE,153,0.0,0.0,70,0.00,,---,0.00,VWS V15.00,2016-02-12 11:38:00,
2016-02-12 06:43:00,19.2,11.1,29.15,SSE,153,0.0,0.0,70,0.00,,---,0.00,VWS V15.00,2016-02-12 11:43:00,
2016-02-12 06:48:00,19.2,11.1,29.15,SSW,195,0.0,0.0,70,0.00,,---,0.00,VWS V15.00,2016-02-12 11:48:00,
2016-02-12 06:53:00,19.4,11.2,29.15,SSW,195,0.0,0.0,70,0.00,,---,0.00,VWS V15.00,2016-02-12 11:53:00,
2016-02-12 06:58:00,19.4,11.2,29.15,SSW,193,0.0,0.0,70,0.00,,---,0.00,VWS V15.00,2016-02-12 11:58:00,
2016-02-12 07:03:00,19.4,11.2,29.15,SSW,199,0.0,0.0,70,0.00,,---,0.00,VWS V15.00,2016-02-12 12:03:00,
2016-02-12 07:08:00,19.4,11.2,29.15,SE,137,0.0,0.0,70,0.00,,---,0.00,VWS V15.00,2016-02-12 12:08:00,
2016-02-12 07:13:00,19.4,11.2,29.15,South,170,0.0,0.0,70,0.00,,---,0.00,VWS V15.00,2016-02-12 12:13:00,
2016-02-12 07:23:00,19.4,11.2,29.15,ESE,113,0.0,0.0,70,0.00,,---,0.00,VWS V15.00,2016-02-12 12:23:00,
2016-02-12 07:33:00,19.6,11.4,29.15,SSW,194,0.0,0.0,70,0.00,,---,0.00,VWS V15.00,2016-02-12 12:33:00,
2016-02-12 07:38:00,19.6,11.4,29.15,SSW,194,2.7,4.0,70,0.00,,---,0.00,VWS V15.00,2016-02-12 12:38:00,
2016-02-12 07:43:00,19.8,11.6,29.12,South,170,0.0,0.0,70,0.00,,---,0.00,VWS V15.00,2016-02-12 12:43:00,
2016-02-12 07:48:00,19.8,11.6,29.12,SSW,202,0.0,0.0,70,0.00,,---,0.00,VWS V15.00,2016-02-12 12:48:00,
2016-02-12 07:53:00,19.9,11.8,29.12,SSW,213,0.0,3.1,70,0.00,,---,0.00,VWS V15.00,2016-02-12 12:53:00,
2016-02-12 07:58:00,20.1,11.9,29.12,SSW,200,0.0,0.0,70,0.00,,---,0.00,VWS V15.00,2016-02-12 12:58:00,
2016-02-12 08:04:00,20.3,12.1,29.12,SSW,200,4.0,4.0,70,0.00,,---,0.00,VWS V15.00,2016-02-12 13:04:00,
2016-02-12 08:13:00,20.8,12.6,29.12,SSW,202,0.0,0.0,70,0.00,,---,0.00,VWS V15.00,2016-02-12 13:13:00,
2016-02-12 08:19:00,21.2,13.0,29.12,SSW,194,0.0,0.0,70,0.00,,---,0.00,VWS V15.00,2016-02-12 13:19:00,
2016-02-12 08:24:00,21.4,13.1,29.12,SSW,195,0.0,0.0,70,0.00,,---,0.00,VWS V15.00,2016-02-12 13:24:00,
2016-02-12 08:29:00,21.7,13.5,29.15,SSW,205,0.0,0.0,70,0.00,,---,0.00,VWS V15.00,2016-02-12 13:29:00,
2016-02-12 08:39:00,22.1,13.8,29.15,SSW,204,0.0,0.0,70,0.00,,---,0.00,VWS V15.00,2016-02-12 13:39:00,
2016-02-12 08:44:00,22.3,14.0,29.15,SW,220,2.7,5.4,70,0.00,,---,0.00,VWS V15.00,2016-02-12 13:44:00,
2016-02-12 08:49:00,22.3,14.0,29.15,SSW,201,5.4,5.4,70,0.00,,---,0.00,VWS V15.00,2016-02-12 13:49:00,
2016-02-12 08:54:00,22.5,14.2,29.15,SSW,208,3.6,4.0,70,0.00,,---,0.00,VWS V15.00,2016-02-12 13:54:00,
2016-02-12 08:59:00,22.8,14.5,29.15,SSW,205,0.0,0.0,70,0.00,,---,0.00,VWS V15.00,2016-02-12 13:59:00,
2016-02-12 09:04:00,23.4,14.7,29.15,SSW,203,0.0,0.0,69,0.00,,---,0.00,VWS V15.00,2016-02-12 14:04:00,
2016-02-12 09:09:00,23.7,15.1,29.15,SW,219,2.7,3.1,69,0.00,,---,0.00,VWS V15.00,2016-02-12 14:09:00,
2016-02-12 09:14:00,24.1,15.4,29.15,SSW,211,3.6,3.6,69,0.00,,---,0.00,VWS V15.00,2016-02-12 14:14:00,
2016-02-12 09:19:00,24.4,15.7,29.15,SW,222,4.0,4.9,69,0.00,,---,0.00,VWS V15.00,2016-02-12 14:19:00,
2016-02-12 09:24:00,24.4,15.7,29.15,SW,234,2.7,5.8,69,0.00,,---,0.00,VWS V15.00,2016-02-12 14:24:00,
2016-02-12 09:34:00,24.4,15.7,29.15,SSW,198,4.0,4.0,69,0.00,,---,0.00,VWS V15.00,2016-02-12 14:34:00,
2016-02-12 09:39:00,24.4,15.7,29.15,WSW,238,3.6,4.9,69,0.00,,---,0.00,VWS V15.00,2016-02-12 14:39:00,
2016-02-12 09:44:00,24.8,16.1,29.12,SSW,207,4.0,5.8,69,0.00,,---,0.00,VWS V15.00,2016-02-12 14:44:00,
2016-02-12 09:49:00,25.2,16.4,29.12,SW,229,2.7,3.6,69,0.00,,---,0.00,VWS V15.00,2016-02-12 14:49:00,
2016-02-12 09:54:00,25.3,16.6,29.12,West,265,3.6,4.0,69,0.00,,---,0.00,VWS V15.00,2016-02-12 14:54:00,
2016-02-12 09:59:00,25.2,16.4,29.12,WSW,250,4.9,5.8,69,0.00,,---,0.00,VWS V15.00,2016-02-12 14:59:00,
2016-02-12 10:04:00,25.3,16.6,29.12,WSW,244,4.9,4.9,69,0.00,,---,0.00,VWS V15.00,2016-02-12 15:04:00,
2016-02-12 10:09:00,25.5,16.8,29.12,WSW,258,4.0,6.3,69,0.00,,---,0.00,VWS V15.00,2016-02-12 15:09:00,
2016-02-12 10:14:00,25.5,16.8,29.12,SSW,204,5.8,5.8,69,0.00,,---,0.00,VWS V15.00,2016-02-12 15:14:00,
2016-02-12 10:19:00,25.3,16.6,29.12,SW,217,4.0,5.4,69,0.00,,---,0.00,VWS V15.00,2016-02-12 15:19:00,
2016-02-12 10:24:00,25.3,16.6,29.12,SW,228,4.9,6.3,69,0.00,,---,0.00,VWS V15.00,2016-02-12 15:24:00,
2016-02-12 10:29:00,25.3,16.6,29.12,SW,232,6.3,6.3,69,0.00,,---,0.00,VWS V15.00,2016-02-12 15:29:00,
2016-02-12 10:34:00,25.7,17.0,29.12,SSW,212,8.7,8.7,69,0.00,,---,0.00,VWS V15.00,2016-02-12 15:34:00,
2016-02-12 10:39:00,25.7,17.0,29.12,SW,224,6.3,6.3,69,0.00,,---,0.00,VWS V15.00,2016-02-12 15:39:00,
2016-02-12 10:44:00,25.9,17.1,29.12,WSW,256,4.0,5.4,69,0.00,,---,0.00,VWS V15.00,2016-02-12 15:44:00,
2016-02-12 10:49:00,26.1,17.3,29.12,WSW,250,4.0,4.0,69,0.00,,---,0.00,VWS V15.00,2016-02-12 15:49:00,
2016-02-12 10:54:00,26.2,17.5,29.12,SW,217,3.6,4.9,69,0.00,,---,0.00,VWS V15.00,2016-02-12 15:54:00,
2016-02-12 11:04:00,27.3,18.2,29.12,WSW,245,3.1,3.1,68,0.00,,---,0.00,VWS V15.00,2016-02-12 16:04:00,
2016-02-12 11:09:00,27.9,18.7,29.12,SW,236,5.4,5.8,68,0.00,,---,0.00,VWS V15.00,2016-02-12 16:09:00,
2016-02-12 11:14:00,28.0,18.9,29.09,SSW,206,5.4,5.4,68,0.00,,---,0.00,VWS V15.00,2016-02-12 16:14:00,
2016-02-12 11:24:00,29.5,20.2,29.09,WSW,257,5.8,5.8,68,0.00,,---,0.00,VWS V15.00,2016-02-12 16:24:00,
2016-02-12 11:29:00,30.2,20.9,29.12,SW,229,4.0,5.4,68,0.00,,---,0.00,VWS V15.00,2016-02-12 16:29:00,
2016-02-12 11:34:00,30.0,20.8,29.12,SSW,207,4.9,4.9,68,0.00,,---,0.00,VWS V15.00,2016-02-12 16:34:00,
2016-02-12 11:39:00,29.5,20.2,29.12,WSW,245,3.6,3.6,68,0.00,,---,0.00,VWS V15.00,2016-02-12 16:39:00,
2016-02-12 11:44:00,30.2,20.9,29.09,SW,235,4.0,4.0,68,0.00,,---,0.00,VWS V15.00,2016-02-12 16:44:00,
2016-02-12 11:49:00,30.4,21.1,29.09,WSW,248,4.0,6.3,68,0.00,,---,0.00,VWS V15.00,2016-02-12 16:49:00,
2016-02-12 11:54:00,30.2,20.9,29.09,West,276,10.5,10.5,68,0.00,,---,0.00,VWS V15.00,2016-02-12 16:54:00,
2016-02-12 11:59:00,29.5,20.2,29.09,West,266,3.1,3.1,68,0.00,,---,0.00,VWS V15.00,2016-02-12 16:59:00,
2016-02-12 12:04:00,29.1,19.9,29.09,WSW,256,4.5,4.5,68,0.00,,---,0.00,VWS V15.00,2016-02-12 17:04:00,
2016-02-12 12:09:00,29.8,20.6,29.09,SW,229,8.1,8.1,68,0.00,,---,0.00,VWS V15.00,2016-02-12 17:09:00,
2016-02-12 12:14:00,30.7,21.4,29.09,SSW,208,4.9,6.7,68,0.00,,---,0.00,VWS V15.00,2016-02-12 17:14:00,
2016-02-12 12:19:00,30.9,21.6,29.09,WSW,257,8.1,8.1,68,0.00,,---,0.00,VWS V15.00,2016-02-12 17:19:00,
2016-02-12 12:24:00,30.6,21.3,29.09,South,188,6.3,6.3,68,0.00,,---,0.00,VWS V15.00,2016-02-12 17:24:00,
2016-02-12 12:29:00,30.2,20.9,29.09,SSW,203,5.4,6.3,68,0.00,,---,0.00,VWS V15.00,2016-02-12 17:29:00,
2016-02-12 12:34:00,29.8,20.6,29.09,West,279,3.6,5.8,68,0.00,,---,0.00,VWS V15.00,2016-02-12 17:34:00,
2016-02-12 12:44:00,28.4,19.2,29.09,West,265,2.7,5.8,68,0.00,,---,0.00,VWS V15.00,2016-02-12 17:44:00,
2016-02-12 12:55:00,28.4,19.2,29.09,SW,233,4.0,4.0,68,0.00,,---,0.00,VWS V15.00,2016-02-12 17:55:00,
2016-02-12 13:00:00,28.4,19.2,29.09,West,279,4.0,8.7,68,0.00,,---,0.00,VWS V15.00,2016-02-12 18:00:00,
2016-02-12 13:04:00,27.9,18.7,29.09,West,271,5.4,5.8,68,0.00,,---,0.00,VWS V15.00,2016-02-12 18:04:00,
2016-02-12 13:10:00,27.9,18.7,29.09,WSW,240,5.4,6.3,68,0.00,,---,0.00,VWS V15.00,2016-02-12 18:10:00,
2016-02-12 13:15:00,27.7,18.5,29.09,West,268,3.6,3.6,68,0.00,,---,0.00,VWS V15.00,2016-02-12 18:15:00,
2016-02-12 13:20:00,27.5,18.3,29.09,WSW,245,5.4,6.3,68,0.00,,---,0.00,VWS V15.00,2016-02-12 18:20:00,
2016-02-12 13:25:00,27.5,18.3,29.09,West,279,4.0,4.9,68,0.00,,---,0.00,VWS V15.00,2016-02-12 18:25:00,
2016-02-12 13:30:00,27.9,18.7,29.06,West,274,3.6,3.6,68,0.00,,---,0.00,VWS V15.00,2016-02-12 18:30:00,
2016-02-12 13:35:00,27.9,18.7,29.06,WNW,292,6.3,6.3,68,0.00,,---,0.00,VWS V15.00,2016-02-12 18:35:00,
2016-02-12 13:40:00,27.7,18.5,29.06,SW,225,6.3,6.3,68,0.00,,---,0.00,VWS V15.00,2016-02-12 18:40:00,
2016-02-12 13:45:00,28.0,18.9,29.06,WNW,286,2.7,2.7,68,0.00,,---,0.00,VWS V15.00,2016-02-12 18:45:00,
2016-02-12 13:50:00,28.9,19.7,29.06,West,281,4.9,4.9,68,0.00,,---,0.00,VWS V15.00,2016-02-12 18:50:00,
2016-02-12 13:55:00,30.0,20.8,29.06,WNW,283,3.6,4.9,68,0.00,,---,0.00,VWS V15.00,2016-02-12 18:55:00,
2016-02-12 14:00:00,30.2,20.9,29.06,West,261,3.1,5.8,68,0.00,,---,0.00,VWS V15.00,2016-02-12 19:00:00,
2016-02-12 14:05:00,30.6,21.3,29.06,WSW,246,3.6,5.4,68,0.00,,---,0.00,VWS V15.00,2016-02-12 19:05:00,
2016-02-12 14:10:00,30.0,20.8,29.06,WSW,257,4.0,10.1,68,0.00,,---,0.00,VWS V15.00,2016-02-12 19:10:00,
2016-02-12 14:15:00,29.5,20.2,29.06,West,272,4.9,8.1,68,0.00,,---,0.00,VWS V15.00,2016-02-12 19:15:00,
2016-02-12 14:20:00,29.5,20.2,29.06,WNW,283,3.6,5.8,68,0.00,,---,0.00,VWS V15.00,2016-02-12 19:20:00,
2016-02-12 14:25:00,29.1,19.9,29.06,West,271,8.1,8.1,68,0.00,,---,0.00,VWS V15.00,2016-02-12 19:25:00,
2016-02-12 14:30:00,28.8,19.5,29.06,WSW,241,6.3,6.3,68,0.00,,---,0.00,VWS V15.00,2016-02-12 19:30:00,
2016-02-12 14:35:00,28.4,19.2,29.06,WNW,301,4.9,5.4,68,0.00,,---,0.00,VWS V15.00,2016-02-12 19:35:00,
2016-02-12 14:40:00,28.0,18.9,29.06,WNW,301,8.7,8.7,68,0.00,,---,0.00,VWS V15.00,2016-02-12 19:40:00,
2016-02-12 14:45:00,28.0,18.9,29.06,NW,309,8.1,8.1,68,0.00,,---,0.00,VWS V15.00,2016-02-12 19:45:00,
2016-02-12 14:50:00,28.6,19.4,29.06,West,276,2.7,6.3,68,0.00,,---,0.00,VWS V15.00,2016-02-12 19:50:00,
2016-02-12 14:55:00,29.3,20.1,29.06,WNW,283,5.4,5.4,68,0.00,,---,0.00,VWS V15.00,2016-02-12 19:55:00,
2016-02-12 15:00:00,29.7,20.4,29.03,NW,319,3.6,3.6,68,0.00,,---,0.00,VWS V15.00,2016-02-12 20:00:00,
2016-02-12 15:05:00,30.4,21.1,29.03,NW,304,7.2,7.2,68,0.00,,---,0.00,VWS V15.00,2016-02-12 20:05:00,
2016-02-12 15:10:00,30.2,20.9,29.03,West,277,4.0,4.9,68,0.00,,---,0.00,VWS V15.00,2016-02-12 20:10:00,
2016-02-12 15:15:00,30.2,20.9,29.03,WNW,288,5.8,5.8,68,0.00,,---,0.00,VWS V15.00,2016-02-12 20:15:00,
2016-02-12 15:20:00,30.2,20.9,29.03,West,275,8.7,8.7,68,0.00,,---,0.00,VWS V15.00,2016-02-12 20:20:00,
2016-02-12 15:25:00,29.5,20.2,29.03,West,276,7.6,7.6,68,0.00,,---,0.00,VWS V15.00,2016-02-12 20:25:00,
2016-02-12 15:30:00,29.8,20.6,29.06,NW,308,5.8,5.8,68,0.00,,---,0.00,VWS V15.00,2016-02-12 20:30:00,
2016-02-12 15:35:00,30.0,20.8,29.06,WNW,284,7.6,8.1,68,0.00,,---,0.00,VWS V15.00,2016-02-12 20:35:00,
2016-02-12 15:40:00,30.2,20.9,29.06,WSW,258,4.5,7.6,68,0.00,,---,0.00,VWS V15.00,2016-02-12 20:40:00,
2016-02-12 15:45:00,29.5,20.2,29.03,NW,311,4.9,8.3,68,0.00,,---,0.00,VWS V15.00,2016-02-12 20:45:00,
2016-02-12 15:50:00,29.3,20.1,29.03,West,261,4.9,10.1,68,0.00,,---,0.00,VWS V15.00,2016-02-12 20:50:00,
2016-02-12 15:55:00,29.1,19.9,29.03,WNW,286,10.5,10.5,68,0.00,,---,0.00,VWS V15.00,2016-02-12 20:55:00,
2016-02-12 16:00:00,28.9,19.7,29.06,WNW,284,4.0,8.3,68,0.00,,---,0.00,VWS V15.00,2016-02-12 21:00:00,
2016-02-12 16:05:00,28.8,19.5,29.06,WNW,288,5.8,5.8,68,0.00,,---,0.00,VWS V15.00,2016-02-12 21:05:00,
2016-02-12 16:10:00,28.4,19.2,29.06,WNW,298,8.1,8.3,68,0.00,,---,0.00,VWS V15.00,2016-02-12 21:10:00,
2016-02-12 16:15:00,27.9,18.7,29.06,WNW,287,7.6,10.1,68,0.00,,---,0.00,VWS V15.00,2016-02-12 21:15:00,
2016-02-12 16:20:00,27.7,18.5,29.06,WNW,296,4.0,4.9,68,0.00,,---,0.00,VWS V15.00,2016-02-12 21:20:00,
2016-02-12 16:25:00,27.5,18.3,29.06,West,278,7.6,7.6,68,0.00,,---,0.00,VWS V15.00,2016-02-12 21:25:00,
2016-02-12 16:30:00,27.7,18.5,29.06,WNW,287,3.6,4.9,68,0.00,,---,0.00,VWS V15.00,2016-02-12 21:30:00,
2016-02-12 16:35:00,27.7,18.5,29.06,NNW,327,3.1,7.6,68,0.00,,---,0.00,VWS V15.00,2016-02-12 21:35:00,
2016-02-12 16:40:00,27.5,18.3,29.06,NNW,339,8.7,8.7,68,0.00,,---,0.00,VWS V15.00,2016-02-12 21:40:00,
2016-02-12 16:45:00,27.3,18.2,29.06,West,276,8.1,8.1,68,0.00,,---,0.00,VWS V15.00,2016-02-12 21:45:00,
2016-02-12 16:50:00,27.1,18.0,29.06,WNW,301,5.4,6.3,68,0.00,,---,0.00,VWS V15.00,2016-02-12 21:50:00,
2016-02-12 16:55:00,27.1,18.0,29.06,NW,306,5.4,8.3,68,0.00,,---,0.00,VWS V15.00,2016-02-12 21:55:00,
2016-02-12 17:00:00,27.1,18.0,29.06,WSW,238,4.0,6.3,68,0.00,,---,0.00,VWS V15.00,2016-02-12 22:00:00,
2016-02-12 17:05:00,27.0,17.8,29.06,West,281,4.0,6.3,68,0.00,,---,0.00,VWS V15.00,2016-02-12 22:05:00,
2016-02-12 17:10:00,26.6,17.8,29.06,WNW,292,7.6,10.1,69,0.00,,---,0.00,VWS V15.00,2016-02-12 22:10:00,
2016-02-12 17:15:00,26.4,17.6,29.09,NW,319,3.1,5.8,69,0.00,,---,0.00,VWS V15.00,2016-02-12 22:15:00,
2016-02-12 17:20:00,26.4,17.6,29.09,NW,313,4.9,6.3,69,0.00,,---,0.00,VWS V15.00,2016-02-12 22:20:00,
2016-02-12 17:25:00,26.4,17.6,29.09,WNW,303,6.3,6.3,69,0.00,,---,0.00,VWS V15.00,2016-02-12 22:25:00,
2016-02-12 17:30:00,26.4,17.6,29.09,NW,324,7.6,7.6,69,0.00,,---,0.00,VWS V15.00,2016-02-12 22:30:00,
2016-02-12 17:35:00,26.2,17.5,29.09,West,278,5.8,5.8,69,0.00,,---,0.00,VWS V15.00,2016-02-12 22:35:00,
2016-02-12 17:40:00,26.1,17.3,29.09,WNW,300,5.8,5.8,69,0.00,,---,0.00,VWS V15.00,2016-02-12 22:40:00,
2016-02-12 17:45:00,26.1,17.3,29.09,NNW,348,7.6,7.6,69,0.00,,---,0.00,VWS V15.00,2016-02-12 22:45:00,
2016-02-12 17:50:00,26.1,17.3,29.09,WNW,285,4.0,4.0,69,0.00,,---,0.00,VWS V15.00,2016-02-12 22:50:00,
2016-02-12 17:55:00,25.9,17.1,29.09,NW,304,5.4,6.3,69,0.00,,---,0.00,VWS V15.00,2016-02-12 22:55:00,
2016-02-12 18:00:00,25.5,16.8,29.09,NW,325,8.1,8.1,69,0.00,,---,0.00,VWS V15.00,2016-02-12 23:00:00,
2016-02-12 18:05:00,25.5,16.8,29.09,West,278,5.8,7.2,69,0.00,,---,0.00,VWS V15.00,2016-02-12 23:05:00,
2016-02-12 18:10:00,25.5,16.8,29.09,West,281,7.2,9.2,69,0.00,,---,0.00,VWS V15.00,2016-02-12 23:10:00,
2016-02-12 18:20:00,25.5,16.8,29.09,West,276,5.4,5.4,69,0.00,,---,0.00,VWS V15.00,2016-02-12 23:20:00,
2016-02-12 18:25:00,25.3,16.6,29.09,West,277,3.6,5.8,69,0.00,,---,0.00,VWS V15.00,2016-02-12 23:25:00,
2016-02-12 18:30:00,25.0,16.3,29.09,WNW,287,8.3,8.7,69,0.00,,---,0.00,VWS V15.00,2016-02-12 23:30:00,
2016-02-12 18:35:00,24.6,15.9,29.09,West,270,3.1,4.9,69,0.00,,---,0.00,VWS V15.00,2016-02-12 23:35:00,
2016-02-12 18:40:00,24.8,16.1,29.09,WNW,286,5.4,6.3,69,0.00,,---,0.00,VWS V15.00,2016-02-12 23:40:00,
2016-02-12 18:45:00,24.6,15.9,29.12,WNW,284,4.0,5.8,69,0.00,,---,0.00,VWS V15.00,2016-02-12 23:45:00,
2016-02-12 18:50:00,24.6,15.9,29.12,SSW,202,4.0,5.8,69,0.00,,---,0.00,VWS V15.00,2016-02-12 23:50:00,
2016-02-12 18:55:00,24.4,15.7,29.12,NW,305,5.4,8.7,69,0.00,,---,0.00,VWS V15.00,2016-02-12 23:55:00,
2016-02-12 19:01:00,24.4,15.7,29.12,WNW,289,6.3,6.3,69,0.00,,---,0.00,VWS V15.00,2016-02-13 00:01:00,
2016-02-12 19:06:00,24.4,15.7,29.12,WNW,290,3.6,8.3,69,0.00,,---,0.00,VWS V15.00,2016-02-13 00:06:00,
2016-02-12 19:11:00,24.4,15.7,29.12,NW,325,8.7,8.7,69,0.00,,---,0.00,VWS V15.00,2016-02-13 00:11:00,
2016-02-12 19:16:00,23.7,16.0,29.12,WNW,291,3.6,9.6,72,0.00,,---,0.00,VWS V15.00,2016-02-13 00:16:00,
2016-02-12 19:21:00,23.2,17.0,29.12,WNW,295,5.4,5.4,77,0.00,,---,0.00,VWS V15.00,2016-02-13 00:21:00,
2016-02-12 19:26:00,23.0,17.2,29.12,WNW,292,8.7,8.7,78,0.00,,---,0.00,VWS V15.00,2016-02-13 00:26:00,
2016-02-12 19:31:00,22.8,17.0,29.15,West,268,8.7,10.5,78,0.00,,---,0.00,VWS V15.00,2016-02-13 00:31:00,
2016-02-12 19:36:00,22.8,17.0,29.15,NW,312,8.3,8.3,78,0.00,,---,0.00,VWS V15.00,2016-02-13 00:36:00,
2016-02-12 19:41:00,22.6,16.8,29.15,NW,315,5.4,8.7,78,0.00,,---,0.00,VWS V15.00,2016-02-13 00:41:00,
2016-02-12 19:46:00,22.6,16.8,29.15,NNW,336,3.6,6.3,78,0.00,,---,0.00,VWS V15.00,2016-02-13 00:46:00,
2016-02-12 19:51:00,22.6,16.8,29.15,NW,323,4.0,4.0,78,0.00,,---,0.00,VWS V15.00,2016-02-13 00:51:00,
2016-02-12 19:56:00,22.6,16.8,29.15,NW,316,3.1,5.4,78,0.00,,---,0.00,VWS V15.00,2016-02-13 00:56:00,
2016-02-12 20:01:00,22.5,16.4,29.15,NW,306,4.0,5.4,77,0.00,,---,0.00,VWS V15.00,2016-02-13 01:01:00,
2016-02-12 20:06:00,22.5,14.2,29.15,NW,315,7.6,7.6,70,0.00,,---,0.00,VWS V15.00,2016-02-13 01:06:00,
2016-02-12 20:11:00,22.5,14.2,29.15,NW,322,6.3,6.3,70,0.00,,---,0.00,VWS V15.00,2016-02-13 01:11:00,
2016-02-12 20:16:00,22.5,14.2,29.15,WNW,299,5.4,5.4,70,0.00,,---,0.00,VWS V15.00,2016-02-13 01:16:00,
2016-02-12 20:21:00,22.5,14.2,29.15,NW,314,5.4,5.4,70,0.00,,---,0.00,VWS V15.00,2016-02-13 01:21:00,
2016-02-12 20:26:00,22.5,14.2,29.18,NW,312,6.3,6.3,70,0.00,,---,0.00,VWS V15.00,2016-02-13 01:26:00,
2016-02-12 20:31:00,22.3,14.0,29.18,NNW,328,8.7,15.4,70,0.00,,---,0.00,VWS V15.00,2016-02-13 01:31:00,
2016-02-12 20:41:00,21.2,13.0,29.18,NW,317,3.6,6.3,70,0.00,,---,0.00,VWS V15.00,2016-02-13 01:41:00,
2016-02-12 20:46:00,21.0,12.8,29.18,NNW,332,3.1,5.4,70,0.00,,---,0.00,VWS V15.00,2016-02-13 01:46:00,
2016-02-12 20:56:00,21.4,13.1,29.18,WNW,300,4.9,4.9,70,0.00,,---,0.00,VWS V15.00,2016-02-13 01:56:00,
2016-02-12 21:01:00,21.6,13.3,29.18,WNW,295,10.5,12.8,70,0.00,,---,0.00,VWS V15.00,2016-02-13 02:01:00,
2016-02-12 21:06:00,21.6,13.3,29.18,NW,304,5.8,8.7,70,0.00,,---,0.00,VWS V15.00,2016-02-13 02:06:00,
2016-02-12 21:11:00,21.2,13.0,29.18,WNW,302,5.8,6.7,70,0.00,,---,0.00,VWS V15.00,2016-02-13 02:11:00,
2016-02-12 21:16:00,20.8,12.6,29.18,WNW,297,6.3,8.3,70,0.00,,---,0.00,VWS V15.00,2016-02-13 02:16:00,
2016-02-12 21:21:00,20.8,12.6,29.18,WNW,290,11.0,11.0,70,0.00,,---,0.00,VWS V15.00,2016-02-13 02:21:00,
2016-02-12 21:26:00,20.8,12.6,29.21,West,270,5.8,5.8,70,0.00,,---,0.00,VWS V15.00,2016-02-13 02:26:00,
2016-02-12 21:31:00,20.7,12.4,29.21,NW,324,5.4,8.1,70,0.00,,---,0.00,VWS V15.00,2016-02-13 02:31:00,
2016-02-12 21:41:00,20.3,12.1,29.18,WNW,293,6.3,6.3,70,0.00,,---,0.00,VWS V15.00,2016-02-13 02:41:00,
2016-02-12 21:46:00,20.5,12.3,29.18,WNW,295,4.5,6.3,70,0.00,,---,0.00,VWS V15.00,2016-02-13 02:46:00,
2016-02-12 21:51:00,20.5,12.3,29.18,WNW,297,6.3,7.6,70,0.00,,---,0.00,VWS V15.00,2016-02-13 02:51:00,
2016-02-12 21:56:00,20.5,12.3,29.21,WNW,298,7.6,7.6,70,0.00,,---,0.00,VWS V15.00,2016-02-13 02:56:00,
2016-02-12 22:01:00,20.3,12.1,29.21,West,279,3.6,3.6,70,0.00,,---,0.00,VWS V15.00,2016-02-13 03:01:00,
2016-02-12 22:06:00,20.3,12.7,29.21,West,260,5.8,6.3,72,0.00,,---,0.00,VWS V15.00,2016-02-13 03:06:00,
2016-02-12 22:16:00,20.1,12.6,29.21,NNW,329,2.7,8.3,72,0.00,,---,0.00,VWS V15.00,2016-02-13 03:16:00,
2016-02-12 22:21:00,19.9,12.4,29.21,WNW,288,5.4,7.2,72,0.00,,---,0.00,VWS V15.00,2016-02-13 03:21:00,
2016-02-12 22:26:00,19.8,12.2,29.21,WNW,282,0.0,0.0,72,0.00,,---,0.00,VWS V15.00,2016-02-13 03:26:00,
2016-02-12 22:32:00,19.6,11.4,29.21,NW,319,8.3,8.3,70,0.00,,---,0.00,VWS V15.00,2016-02-13 03:32:00,
2016-02-12 22:37:00,19.6,11.4,29.21,WNW,286,5.4,7.6,70,0.00,,---,0.00,VWS V15.00,2016-02-13 03:37:00,
2016-02-12 22:42:00,19.8,11.6,29.23,North,0,5.4,6.3,70,0.00,,---,0.00,VWS V15.00,2016-02-13 03:42:00,
2016-02-12 22:47:00,19.4,11.2,29.23,NNW,343,5.8,10.5,70,0.00,,---,0.00,VWS V15.00,2016-02-13 03:47:00,
2016-02-12 22:52:00,18.7,10.5,29.23,NNW,343,5.8,5.8,70,0.00,,---,0.00,VWS V15.00,2016-02-13 03:52:00,
2016-02-12 22:57:00,18.3,11.1,29.23,WNW,303,5.8,6.3,73,0.00,,---,0.00,VWS V15.00,2016-02-13 03:57:00,
2016-02-12 23:02:00,18.1,11.0,29.23,NNW,342,5.8,6.3,73,0.00,,---,0.00,VWS V15.00,2016-02-13 04:02:00,
2016-02-12 23:07:00,18.1,11.0,29.23,NNW,338,8.1,8.1,73,0.00,,---,0.00,VWS V15.00,2016-02-13 04:07:00,